SLM421 SMJP-SYCJ

Flight info

Callsign SLM421
Flight time 0h 43m
Altitude 32000
Route GIGLO DCT KETIL DCT GEBON DCT SISEX DCT LITOL DCT AKSIN DCT OGRUM
Aircraft B738/M-SDE2E3FGHIRWXY/LB1

Departure

Time 2026-04-30 13:11
Airport Johan Adolf Pengel International Airport (SMJP)

Arrival

Time 2026-04-30 13:55
Airport Cheddi Jagan International Airport (SYCJ)
Time Latitude Longitude Altitude Speed Heading
2026-04-30 12:38 5.45528 -55.19869 60 ft 0 kts 58°
2026-04-30 13:07 5.45529 -55.19869 54 ft 1 kts 58°
2026-04-30 13:07 5.45523 -55.19845 58 ft 8 kts 127°
2026-04-30 13:07 5.45461 -55.19854 58 ft 11 kts 235°
2026-04-30 13:08 5.45445 -55.19923 59 ft 10 kts 270°
2026-04-30 13:08 5.45445 -55.19991 59 ft 9 kts 271°
2026-04-30 13:08 5.45445 -55.20056 59 ft 9 kts 271°
2026-04-30 13:08 5.45445 -55.20123 60 ft 9 kts 270°
2026-04-30 13:09 5.45445 -55.20182 60 ft 7 kts 270°
2026-04-30 13:09 5.45445 -55.20234 60 ft 8 kts 270°
2026-04-30 13:09 5.45444 -55.20306 58 ft 13 kts 262°
2026-04-30 13:09 5.45384 -55.20358 56 ft 10 kts 186°
2026-04-30 13:10 5.45337 -55.20356 54 ft 1 kts 169°
2026-04-30 13:10 5.45337 -55.20355 54 ft 0 kts 168°
2026-04-30 13:10 5.45301 -55.20345 55 ft 8 kts 153°
2026-04-30 13:10 5.45277 -55.20282 56 ft 18 kts 90°
2026-04-30 13:11 5.45286 -55.19925 57 ft 86 kts 88°
2026-04-30 13:11 5.45300 -55.19108 68 ft 144 kts 83°
2026-04-30 13:11 5.45446 -55.18103 628 ft 151 kts 67°
2026-04-30 13:11 5.46165 -55.17289 1130 ft 162 kts 32°
2026-04-30 13:12 5.47265 -55.16940 1783 ft 174 kts
2026-04-30 13:12 5.48518 -55.16750 2359 ft 193 kts 14°
2026-04-30 13:12 5.49884 -55.16502 2766 ft 210 kts 11°
2026-04-30 13:13 5.53081 -55.16236 3554 ft 242 kts
2026-04-30 13:13 5.54837 -55.16231 3858 ft 262 kts
2026-04-30 13:13 5.58566 -55.16439 4868 ft 269 kts 357°
2026-04-30 13:14 5.60454 -55.16613 4959 ft 273 kts 356°
2026-04-30 13:14 5.62359 -55.16818 4964 ft 276 kts 355°
2026-04-30 13:14 5.66145 -55.17262 4967 ft 274 kts 355°
2026-04-30 13:15 5.68015 -55.17492 4968 ft 274 kts 355°
2026-04-30 13:15 5.71833 -55.17971 4945 ft 280 kts 353°
2026-04-30 13:15 5.73751 -55.18234 4981 ft 279 kts 354°
2026-04-30 13:16 5.75677 -55.18470 4980 ft 277 kts 354°
2026-04-30 13:16 5.77589 -55.18706 4958 ft 275 kts 355°
2026-04-30 13:16 5.79434 -55.19179 4946 ft 277 kts 334°
2026-04-30 13:17 5.81641 -55.22255 5326 ft 289 kts 282°
2026-04-30 13:17 5.81982 -55.24212 6263 ft 286 kts 279°
2026-04-30 13:17 5.82561 -55.28216 7906 ft 293 kts 278°
2026-04-30 13:18 5.82853 -55.30273 8650 ft 299 kts 278°
2026-04-30 13:18 5.83469 -55.34452 10265 ft 307 kts 278°
2026-04-30 13:18 5.83796 -55.36640 10609 ft 329 kts 278°
2026-04-30 13:19 5.84148 -55.38967 11070 ft 342 kts 278°
2026-04-30 13:19 5.84506 -55.41328 11817 ft 347 kts 278°
2026-04-30 13:19 5.84875 -55.43736 12619 ft 351 kts 278°
2026-04-30 13:19 5.85248 -55.46178 13375 ft 356 kts 278°
2026-04-30 13:20 5.85627 -55.48655 14111 ft 360 kts 278°
2026-04-30 13:20 5.86008 -55.51151 14822 ft 364 kts 278°
2026-04-30 13:20 5.86397 -55.53686 15532 ft 369 kts 278°
2026-04-30 13:20 5.86789 -55.56246 16249 ft 373 kts 278°
2026-04-30 13:21 5.87186 -55.58831 16979 ft 377 kts 278°
2026-04-30 13:21 5.87587 -55.61447 17685 ft 381 kts 278°
2026-04-30 13:21 5.87992 -55.64094 18344 ft 386 kts 278°
2026-04-30 13:22 5.88814 -55.69479 19531 ft 393 kts 278°
2026-04-30 13:22 5.89217 -55.72204 20135 ft 396 kts 277°
2026-04-30 13:22 5.89984 -55.77742 21295 ft 403 kts 277°
2026-04-30 13:23 5.90362 -55.80510 21855 ft 407 kts 276°
2026-04-30 13:23 5.91144 -55.86201 22951 ft 414 kts 276°
2026-04-30 13:24 5.91945 -55.91974 23938 ft 420 kts 277°
2026-04-30 13:24 5.92753 -55.97774 24889 ft 418 kts 277°
2026-04-30 13:25 5.93549 -56.03486 24974 ft 415 kts 277°
2026-04-30 13:25 5.94350 -56.09250 24983 ft 417 kts 277°
2026-04-30 13:26 5.95553 -56.17912 24983 ft 417 kts 277°
2026-04-30 13:26 5.96355 -56.23688 24981 ft 417 kts 277°
2026-04-30 13:27 5.97155 -56.29455 24982 ft 416 kts 277°
2026-04-30 13:28 5.98348 -56.38071 24983 ft 417 kts 277°
2026-04-30 13:28 5.99146 -56.43836 24978 ft 416 kts 277°
2026-04-30 13:28 5.99544 -56.46714 24981 ft 416 kts 277°
2026-04-30 13:29 6.00340 -56.52466 24982 ft 415 kts 277°
2026-04-30 13:29 6.01135 -56.58220 24981 ft 415 kts 277°
2026-04-30 13:30 6.02324 -56.66827 24983 ft 416 kts 277°
2026-04-30 13:31 6.03118 -56.72586 24981 ft 416 kts 277°
2026-04-30 13:31 6.04310 -56.81236 24985 ft 416 kts 277°
2026-04-30 13:32 6.05106 -56.87011 24981 ft 417 kts 277°
2026-04-30 13:32 6.05890 -56.92686 24973 ft 409 kts 277°
2026-04-30 13:33 6.06668 -56.98356 24991 ft 410 kts 277°
2026-04-30 13:33 6.08090 -57.03908 24489 ft 408 kts 288°
2026-04-30 13:34 6.09014 -57.06600 24063 ft 406 kts 289°
2026-04-30 13:34 6.11785 -57.14587 22632 ft 401 kts 288°
2026-04-30 13:35 6.12687 -57.17232 22168 ft 398 kts 288°
2026-04-30 13:35 6.14459 -57.22474 21276 ft 393 kts 288°
2026-04-30 13:36 6.16201 -57.27646 20404 ft 388 kts 288°
2026-04-30 13:36 6.17063 -57.30209 19965 ft 386 kts 288°
2026-04-30 13:36 6.18776 -57.35300 19082 ft 383 kts 288°
2026-04-30 13:37 6.19627 -57.37831 18643 ft 382 kts 288°
2026-04-30 13:37 6.21321 -57.42868 17722 ft 378 kts 288°
2026-04-30 13:38 6.22982 -57.47807 16845 ft 372 kts 288°
2026-04-30 13:38 6.23807 -57.50262 16424 ft 370 kts 288°
2026-04-30 13:38 6.25442 -57.55125 15590 ft 364 kts 289°
2026-04-30 13:39 6.27050 -57.59912 14771 ft 359 kts 289°
2026-04-30 13:39 6.28644 -57.64654 13927 ft 356 kts 289°
2026-04-30 13:40 6.29436 -57.67010 13484 ft 354 kts 289°
2026-04-30 13:40 6.30223 -57.69349 13052 ft 352 kts 289°
2026-04-30 13:40 6.31004 -57.71671 12630 ft 349 kts 289°
2026-04-30 13:40 6.31777 -57.73977 12231 ft 347 kts 289°
2026-04-30 13:41 6.32547 -57.76272 11821 ft 346 kts 288°
2026-04-30 13:41 6.33109 -57.78615 11415 ft 344 kts 275°
2026-04-30 13:41 6.33079 -57.81006 11051 ft 342 kts 265°
2026-04-30 13:41 6.32882 -57.83361 10626 ft 343 kts 264°
2026-04-30 13:42 6.32657 -57.85732 10352 ft 337 kts 263°
2026-04-30 13:42 6.32582 -57.86524 10299 ft 333 kts 263°
2026-04-30 13:42 6.32220 -57.90484 10041 ft 316 kts 264°
2026-04-30 13:43 6.32032 -57.92651 9930 ft 305 kts 263°
2026-04-30 13:43 6.31856 -57.94733 9782 ft 296 kts 264°
2026-04-30 13:43 6.31680 -57.96837 9236 ft 303 kts 264°
2026-04-30 13:43 6.31506 -57.98928 8859 ft 303 kts 264°
2026-04-30 13:44 6.31333 -58.01035 8522 ft 302 kts 264°
2026-04-30 13:44 6.31161 -58.03139 8204 ft 301 kts 264°
2026-04-30 13:44 6.30991 -58.05226 7880 ft 299 kts 264°
2026-04-30 13:44 6.30822 -58.07297 7560 ft 293 kts 264°
2026-04-30 13:45 6.30501 -58.11256 6948 ft 275 kts 264°
2026-04-30 13:45 6.30347 -58.13150 6660 ft 268 kts 265°
2026-04-30 13:45 6.30197 -58.14992 6382 ft 261 kts 264°
2026-04-30 13:46 6.30049 -58.16809 6103 ft 260 kts 265°
2026-04-30 13:46 6.29902 -58.18621 5848 ft 261 kts 265°
2026-04-30 13:46 6.29755 -58.20439 5516 ft 268 kts 265°
2026-04-30 13:46 6.29601 -58.22321 5243 ft 268 kts 265°
2026-04-30 13:47 6.29448 -58.24187 4963 ft 270 kts 264°
2026-04-30 13:47 6.29295 -58.26074 4625 ft 270 kts 265°
2026-04-30 13:47 6.29143 -58.27928 4355 ft 260 kts 265°
2026-04-30 13:47 6.28996 -58.29719 4080 ft 253 kts 265°
2026-04-30 13:48 6.28943 -58.31434 3960 ft 240 kts 281°
2026-04-30 13:48 6.29574 -58.32932 3901 ft 229 kts 307°
2026-04-30 13:48 6.30593 -58.34086 3801 ft 217 kts 317°
2026-04-30 13:48 6.31639 -58.35114 3701 ft 202 kts 318°
2026-04-30 13:49 6.32613 -58.36067 3600 ft 188 kts 318°
2026-04-30 13:49 6.33525 -58.36967 3517 ft 182 kts 318°
2026-04-30 13:49 6.34435 -58.37841 3462 ft 180 kts 326°
2026-04-30 13:49 6.35570 -58.38298 3337 ft 174 kts 358°
2026-04-30 13:50 6.36752 -58.38162 3169 ft 171 kts 24°
2026-04-30 13:50 6.38542 -58.36729 2790 ft 164 kts 45°
2026-04-30 13:50 6.39348 -58.35962 2586 ft 160 kts 46°
2026-04-30 13:51 6.40128 -58.35193 2380 ft 152 kts 47°
2026-04-30 13:51 6.40856 -58.34462 2204 ft 146 kts 46°
2026-04-30 13:51 6.41580 -58.33736 2006 ft 147 kts 47°
2026-04-30 13:51 6.42311 -58.32998 1821 ft 150 kts 46°
2026-04-30 13:52 6.43025 -58.32281 1624 ft 141 kts 46°
2026-04-30 13:52 6.43699 -58.31603 1439 ft 133 kts 46°
2026-04-30 13:52 6.44343 -58.30954 1286 ft 132 kts 46°
2026-04-30 13:52 6.45001 -58.30291 1115 ft 135 kts 46°
2026-04-30 13:53 6.45669 -58.29623 905 ft 136 kts 46°
2026-04-30 13:53 6.46361 -58.28937 823 ft 137 kts 44°
2026-04-30 13:53 6.47003 -58.28279 721 ft 133 kts 45°
2026-04-30 13:53 6.47651 -58.27603 526 ft 137 kts 48°
2026-04-30 13:54 6.48334 -58.26917 332 ft 141 kts 44°
2026-04-30 13:54 6.49028 -58.26246 106 ft 135 kts 46°
2026-04-30 13:54 6.49628 -58.25643 90 ft 103 kts 44°
2026-04-30 13:54 6.50021 -58.25252 88 ft 53 kts 44°
2026-04-30 13:55 6.50205 -58.25065 83 ft 20 kts 46°
2026-04-30 13:55 6.50287 -58.25054 81 ft 13 kts 319°
2026-04-30 13:55 6.50339 -58.25119 75 ft 8 kts 313°
2026-04-30 13:55 6.50336 -58.25167 74 ft 8 kts 229°
2026-04-30 13:56 6.50323 -58.25191 74 ft 2 kts 281°
2026-04-30 13:56 6.50337 -58.25210 77 ft 4 kts 313°
2026-04-30 13:56 6.50355 -58.25228 77 ft 0 kts 316°
2026-04-30 13:56 6.50355 -58.25229 77 ft 0 kts 316°